User: anonymous   Login
Location: Kelshall
(52.0000°N, 0.0500°W)
Time: 14:34:48
(UTC+00:00)
Language:

Cosmos 1655 Rocket - Orbit

View from above orbital plane
View from above orbital plane
View from above satellite
View from above satellite

Ground track
Ground track

The orbit data is extracted from the following two-line orbital elements,

1 15752U 85041B   21173.82855810 -.00000005  00000-0 -22187-4 0  9990
2 15752  82.9493 304.6587 0024385  14.7195 345.4664 13.73118903806887
Epoch (UTC): 22 June 2021 19:53:07
Eccentricity: 0.0024385
inclination: 82.9493°
perigee height: 970 km
apogee height: 1006 km
right ascension of ascending node: 304.6587°
argument of perigee: 14.7195°
revolutions per day: 13.73118903
mean anomaly at epoch: 345.4664°
orbit number at epoch: 80688

The dashed part of the orbit path shows where the satellite is in the earth's shadow,  

DLR